カタログに戻る

CZ-2C R/B

運用中VLEO
NORAD 52794·ROCKET BODY·🇨🇳 China

打ち上げ Jun 2, 2022 から Xichang Satellite Launch Center

Loading…

次のパス (今後24時間)

TLE

最新Source: Space-Track

元期: Sep 14, 2026, 10:26 UTC

1 52794U 22058K   26257.43531731  .00045777  00000-0  38913-3 0  9990
2 52794  50.1838  56.8810 0029962 284.6460  75.1195 15.68498607239624

AllMySatでCZ-2C R/Bをリアルタイム追跡

Download on the App Store